TimeEDT,TemperatureF,Dew PointF,Humidity,Sea Level PressureIn,VisibilityMPH,Wind Direction,Wind SpeedMPH,Gust SpeedMPH,PrecipitationIn,Events,Conditions,WindDirDegrees,DateUTC
12:15 AM,39.2,37.4,93,29.99,5.0,Calm,Calm,-,N/A,,Clear,0,2013-04-09 04:15:00
12:35 AM,39.2,37.4,93,30.00,5.0,Calm,Calm,-,N/A,,Clear,0,2013-04-09 04:35:00
12:54 AM,39.2,37.4,93,30.00,5.0,Calm,Calm,-,N/A,,Clear,0,2013-04-09 04:54:00
1:15 AM,39.2,37.4,93,30.01,4.0,Calm,Calm,-,N/A,,Scattered Clouds,0,2013-04-09 05:15:00
1:35 AM,39.2,39.2,100,30.01,5.0,Calm,Calm,-,N/A,,Scattered Clouds,0,2013-04-09 05:35:00
1:54 AM,39.2,37.4,93,30.02,5.0,Calm,Calm,-,N/A,,Clear,0,2013-04-09 05:54:00
2:15 AM,39.2,37.4,93,30.02,5.0,Calm,Calm,-,N/A,,Clear,0,2013-04-09 06:15:00
2:35 AM,39.2,37.4,93,30.02,4.0,Calm,Calm,-,N/A,,Scattered Clouds,0,2013-04-09 06:35:00
2:55 AM,39.2,39.2,100,30.02,5.0,Calm,Calm,-,N/A,,Overcast,0,2013-04-09 06:55:00
3:15 AM,41.0,39.2,93,30.01,5.0,Calm,Calm,-,N/A,,Mostly Cloudy,0,2013-04-09 07:15:00
3:34 AM,41.0,39.2,93,30.01,5.0,Calm,Calm,-,N/A,,Mostly Cloudy,0,2013-04-09 07:34:00
3:55 AM,39.2,39.2,100,30.00,5.0,Calm,Calm,-,N/A,,Scattered Clouds,0,2013-04-09 07:55:00
4:14 AM,41.0,39.2,93,30.02,5.0,Calm,Calm,-,N/A,,Scattered Clouds,0,2013-04-09 08:14:00
4:35 AM,41.0,39.2,93,30.01,5.0,Calm,Calm,-,N/A,,Mostly Cloudy,0,2013-04-09 08:35:00
4:55 AM,42.8,39.2,87,30.01,5.0,Calm,Calm,-,N/A,,Mostly Cloudy,0,2013-04-09 08:55:00
5:14 AM,42.8,39.2,87,30.01,5.0,Calm,Calm,-,N/A,,Mostly Cloudy,0,2013-04-09 09:14:00
5:35 AM,42.8,39.2,87,30.02,7.0,Calm,Calm,-,N/A,,Overcast,0,2013-04-09 09:35:00
5:55 AM,42.8,39.2,87,30.01,7.0,Calm,Calm,-,N/A,,Mostly Cloudy,0,2013-04-09 09:55:00
6:15 AM,42.8,39.2,87,30.02,7.0,Calm,Calm,-,N/A,,Overcast,0,2013-04-09 10:15:00
6:35 AM,42.8,39.2,87,30.01,7.0,East,5.8,-,N/A,,Mostly Cloudy,90,2013-04-09 10:35:00
6:54 AM,42.8,41.0,93,30.02,7.0,ESE,5.8,-,N/A,,Mostly Cloudy,110,2013-04-09 10:54:00
7:15 AM,44.6,41.0,87,30.01,7.0,ESE,8.1,-,N/A,,Overcast,120,2013-04-09 11:15:00
7:35 AM,44.6,41.0,87,30.02,7.0,Calm,Calm,-,N/A,,Mostly Cloudy,0,2013-04-09 11:35:00
7:54 AM,44.6,41.0,87,30.01,7.0,Calm,Calm,-,N/A,,Scattered Clouds,0,2013-04-09 11:54:00
8:15 AM,46.4,42.8,87,30.00,10.0,ESE,8.1,-,N/A,,Scattered Clouds,110,2013-04-09 12:15:00
8:35 AM,46.4,42.8,87,30.00,10.0,ESE,8.1,-,N/A,,Clear,120,2013-04-09 12:35:00
8:54 AM,48.2,42.8,82,30.01,10.0,ESE,6.9,-,N/A,,Mostly Cloudy,120,2013-04-09 12:54:00
9:15 AM,48.2,42.8,82,30.01,10.0,Calm,Calm,-,N/A,,Overcast,0,2013-04-09 13:15:00
9:35 AM,50.0,42.8,76,30.00,10.0,ESE,10.4,-,N/A,,Mostly Cloudy,120,2013-04-09 13:35:00
9:54 AM,51.8,44.6,76,29.99,10.0,SE,13.8,-,N/A,,Mostly Cloudy,130,2013-04-09 13:54:00
10:15 AM,51.8,44.6,76,29.97,10.0,SE,12.7,20.7,N/A,,Scattered Clouds,130,2013-04-09 14:15:00
10:35 AM,51.8,44.6,76,29.98,10.0,SE,9.2,16.1,N/A,,Scattered Clouds,140,2013-04-09 14:35:00
10:54 AM,53.6,44.6,72,29.99,10.0,SE,8.1,-,N/A,,Mostly Cloudy,140,2013-04-09 14:54:00
11:15 AM,53.6,44.6,72,29.97,10.0,SE,10.4,-,N/A,,Overcast,140,2013-04-09 15:15:00
11:35 AM,55.4,44.6,67,29.96,10.0,SE,13.8,17.3,N/A,,Mostly Cloudy,130,2013-04-09 15:35:00
11:54 AM,57.2,46.4,67,29.95,10.0,SSE,11.5,19.6,N/A,,Scattered Clouds,150,2013-04-09 15:54:00
12:15 PM,57.2,46.4,67,29.95,10.0,SE,12.7,16.1,N/A,,Scattered Clouds,140,2013-04-09 16:15:00
12:35 PM,57.2,46.4,67,29.94,10.0,SE,12.7,-,N/A,,Mostly Cloudy,140,2013-04-09 16:35:00
12:55 PM,59.0,48.2,67,29.92,10.0,SE,10.4,-,N/A,,Mostly Cloudy,130,2013-04-09 16:55:00
1:15 PM,60.8,48.2,63,29.90,10.0,SE,9.2,-,N/A,,Mostly Cloudy,140,2013-04-09 17:15:00
1:34 PM,62.6,50.0,63,29.89,10.0,SE,10.4,-,N/A,,Scattered Clouds,140,2013-04-09 17:34:00
1:55 PM,64.4,51.8,64,29.88,10.0,South,9.2,-,N/A,,Scattered Clouds,170,2013-04-09 17:55:00
2:15 PM,66.2,51.8,60,29.88,10.0,South,9.2,-,N/A,,Scattered Clouds,170,2013-04-09 18:15:00
2:34 PM,66.2,53.6,64,29.88,10.0,South,8.1,-,N/A,,Scattered Clouds,170,2013-04-09 18:34:00
2:55 PM,66.2,53.6,64,29.86,10.0,Calm,Calm,-,N/A,,Scattered Clouds,0,2013-04-09 18:55:00
3:15 PM,68.0,55.4,64,29.86,10.0,Calm,Calm,-,N/A,,Mostly Cloudy,0,2013-04-09 19:15:00
3:34 PM,69.8,55.4,60,29.86,10.0,Calm,Calm,-,N/A,,Mostly Cloudy,0,2013-04-09 19:34:00
3:55 PM,68.0,55.4,64,29.86,10.0,Calm,Calm,-,N/A,,Overcast,0,2013-04-09 19:55:00
4:15 PM,66.2,55.4,68,29.85,10.0,Calm,Calm,-,N/A,,Overcast,0,2013-04-09 20:15:00
4:35 PM,66.2,55.4,68,29.85,10.0,Calm,Calm,-,N/A,,Mostly Cloudy,0,2013-04-09 20:35:00
4:55 PM,66.2,55.4,68,29.84,10.0,Calm,Calm,-,N/A,,Overcast,0,2013-04-09 20:55:00
5:14 PM,66.2,55.4,68,29.84,10.0,Calm,Calm,-,N/A,,Overcast,0,2013-04-09 21:14:00
5:34 PM,69.8,57.2,64,29.82,10.0,SW,11.5,-,N/A,,Mostly Cloudy,220,2013-04-09 21:34:00
5:55 PM,71.6,59.0,64,29.84,10.0,SW,8.1,-,N/A,,Mostly Cloudy,230,2013-04-09 21:55:00
6:15 PM,71.6,59.0,64,29.85,10.0,WSW,9.2,-,N/A,,Overcast,240,2013-04-09 22:15:00
6:35 PM,71.6,57.2,60,29.85,10.0,WSW,5.8,-,N/A,,Overcast,240,2013-04-09 22:35:00
6:55 PM,69.8,57.2,64,29.85,10.0,SW,9.2,-,N/A,,Mostly Cloudy,230,2013-04-09 22:55:00
7:14 PM,71.6,57.2,60,29.85,10.0,SW,15.0,20.7,N/A,,Mostly Cloudy,230,2013-04-09 23:14:00
7:35 PM,71.6,55.4,57,29.85,10.0,SW,12.7,17.3,N/A,,Overcast,230,2013-04-09 23:35:00
7:55 PM,71.6,55.4,57,29.85,10.0,WSW,10.4,-,N/A,,Mostly Cloudy,240,2013-04-09 23:55:00
8:14 PM,69.8,55.4,60,29.85,10.0,WSW,10.4,-,N/A,,Mostly Cloudy,240,2013-04-10 00:14:00
8:35 PM,69.8,57.2,64,29.85,10.0,WSW,10.4,-,N/A,,Scattered Clouds,240,2013-04-10 00:35:00
8:54 PM,69.8,57.2,64,29.86,10.0,WSW,8.1,-,N/A,,Mostly Cloudy,240,2013-04-10 00:54:00
9:15 PM,64.4,55.4,73,29.88,10.0,North,11.5,18.4,N/A,,Mostly Cloudy,350,2013-04-10 01:15:00
9:35 PM,60.8,53.6,77,29.89,10.0,NNE,9.2,-,N/A,,Overcast,30,2013-04-10 01:35:00
9:54 PM,57.2,51.8,82,29.91,7.0,North,8.1,-,N/A,,Overcast,360,2013-04-10 01:54:00
10:15 PM,55.4,50.0,82,29.92,7.0,NE,5.8,-,N/A,,Mostly Cloudy,40,2013-04-10 02:15:00
10:54 PM,53.6,48.2,82,29.92,7.0,NE,9.2,-,N/A,,Mostly Cloudy,40,2013-04-10 02:54:00
11:15 PM,51.8,46.4,82,29.92,5.0,NE,10.4,17.3,N/A,,Scattered Clouds,40,2013-04-10 03:15:00
11:35 PM,51.8,46.4,82,29.93,5.0,NE,11.5,-,N/A,,Scattered Clouds,50,2013-04-10 03:35:00
11:54 PM,50.0,46.4,87,29.92,5.0,NE,10.4,17.3,N/A,,Scattered Clouds,50,2013-04-10 03:54:00